User: anonymous   Login
Location: Acts Church of Fort Worth
(32.6786°N, 97.2668°W)
Time: 07:53:39
(UTC+00:00)
Language:

Cosmos 1821 Rocket - Orbit

View from above orbital plane
View from above orbital plane
View from above satellite
View from above satellite

Ground track
Ground track

The orbit is defined by the following mean orbital elements,

1 17526U          26072.70837645 +.00000000 +00000-0 +60794-4 0 00001
2 17526  82.9050 174.4236 0040747  34.8082 325.5728 13.77212967    08
Epoch (UTC): 13 March 2026 17:00:03
Eccentricity: 0.0040747
inclination: 82.9050°
perigee height: 944 km
apogee height: 1004 km
right ascension of ascending node: 174.4236°
argument of perigee: 34.8082°
revolutions per day: 13.77212967
mean anomaly at epoch: 325.5728°

The dashed part of the orbit path shows where the satellite is in the earth's shadow,  

DLR